Barnwell, SC

5:46 PM EST on November 11, 2019 (GMT -0500)
Barnwell County

Weather History for KBNL - September, 2019

Change the Weather History Date:

Thursday, September 19, 2019

  Actual Average (KOGB) Record (KOGB)
Temperature  
Mean Temperature 71 °F 74 °F  
Max Temperature 82 °F 85 °F 93 °F (1954)
Min Temperature 60 °F 64 °F 45 °F (1981)
Degree Days  
Heating Degree Days 0 0  
Month to date heating degree days 0  
Since 1 July heating degree days 0  
Cooling Degree Days 6 9  
Month to date cooling degree days 216  
Year to date cooling degree days 1909  
Growing Degree Days 21 (Base 50)    
Moisture  
Dew Point 50 °F    
Average Humidity 51    
Maximum Humidity 77    
Minimum Humidity 21    
Precipitation  
Precipitation 0.00 in 0.11 in 1.28 in (1971)
Month to date precipitation 2.41  
Year to date precipitation 35.72  
Sea Level Pressure  
Sea Level Pressure 30.19 in    
Wind  
Wind Speed 8 mph (NE)    
Max Wind Speed 16 mph    
Max Gust Speed 24 mph    
T = Trace of Precipitation, MM = Missing Value Source: NWS Daily Summary

Daily Weather History Graph

Daily Weather History Graph

Search for Another Location

Airport or City:

Astronomy

Sep. 19, 2019 Rise Set
Actual Time 7:11 AM EDT 7:26 PM EDT
Civil Twilight 6:46 AM EDT 7:51 PM EDT
Nautical Twilight 6:17 AM EDT 8:20 PM EDT
Astronomical Twilight 5:48 AM EDT 8:49 PM EDT
Moon 10:50 PM EDT (9/19) 11:59 AM EDT (9/19)
Length of Visible Light 13h 04m
Length of Day
12h 15m
Waning Gibbous, 74% of the Moon is Illuminated
Sep 19
Waning Gibbous
Sep 21
Last Quarter
Sep 28
New
Oct 5
First Quarter
Oct 13
Full

Hourly Weather History & Observations

Time (EDT) Temp. Dew Point Humidity Pressure Visibility Wind Dir Wind Speed Gust Speed Precip Events Conditions
12:15 AM 71.6 °F 59.0 °F 64% 30.14 in - ENE 5.8 mph - N/A   Overcast
12:35 AM 71.6 °F 59.0 °F 64% 30.14 in - ENE 8.1 mph - N/A   Overcast
12:55 AM 71.6 °F 57.2 °F 60% 30.15 in - ENE 9.2 mph - N/A   Overcast
1:15 AM 71.6 °F 57.2 °F 60% 30.14 in - East 11.5 mph - N/A   Overcast
1:55 AM 71.6 °F 57.2 °F 60% 30.15 in - East 8.1 mph - N/A   Overcast
2:15 AM 69.8 °F 57.2 °F 64% 30.15 in - East 8.1 mph - N/A   Overcast
2:35 AM 68.0 °F 57.2 °F 68% 30.15 in - ENE 5.8 mph - N/A   Overcast
2:55 AM 68.0 °F 57.2 °F 68% 30.15 in - ENE 5.8 mph - N/A   Overcast
3:15 AM 68.0 °F 57.2 °F 68% 30.15 in - ENE 6.9 mph - N/A   Overcast
3:35 AM 66.2 °F 57.2 °F 73% 30.15 in - ENE 5.8 mph - N/A   Overcast
3:55 AM 66.2 °F 57.2 °F 73% 30.15 in - ENE 5.8 mph - N/A   Overcast
4:15 AM 66.2 °F 57.2 °F 73% 30.15 in - NE 4.6 mph - N/A   Mostly Cloudy
4:55 AM 64.4 °F 57.2 °F 77% 30.16 in - NE 6.9 mph - N/A   Scattered Clouds
5:15 AM 64.4 °F 55.4 °F 73% 30.17 in - North - - N/A   Scattered Clouds
5:35 AM 64.4 °F 55.4 °F 73% 30.17 in - ENE 6.9 mph - N/A   Scattered Clouds
5:55 AM 62.6 °F 55.4 °F 77% 30.17 in - ENE 8.1 mph - N/A   Partly Cloudy
6:15 AM 62.6 °F 55.4 °F 77% 30.18 in - NE 6.9 mph - N/A   Clear
6:35 AM 62.6 °F 53.6 °F 72% 30.19 in - NE 6.9 mph - N/A   Partly Cloudy
6:55 AM 60.8 °F 53.6 °F 77% 30.20 in - NE 5.8 mph - N/A   Clear
7:15 AM 60.8 °F 53.6 °F 77% 30.20 in - NE 6.9 mph - N/A   Clear
7:35 AM 60.8 °F 53.6 °F 77% 30.20 in - NNE 6.9 mph - N/A   Clear
7:55 AM 60.8 °F 53.6 °F 77% 30.21 in - NNE 5.8 mph - N/A   Clear
8:15 AM 62.6 °F 53.6 °F 72% 30.22 in - North 5.8 mph - N/A   Clear
8:35 AM 64.4 °F 53.6 °F 68% 30.22 in - NNE 8.1 mph - N/A   Clear
8:55 AM 66.2 °F 53.6 °F 64% 30.22 in - NE 8.1 mph - N/A   Clear
9:15 AM 68.0 °F 53.6 °F 60% 30.23 in - NE 9.2 mph - N/A   Clear
9:55 AM 69.8 °F 53.6 °F 56% 30.23 in - NE 8.1 mph 15.0 mph N/A   Clear
10:15 AM 71.6 °F 51.8 °F 50% 30.23 in - ENE 15.0 mph - N/A   Clear
10:35 AM 73.4 °F 50.0 °F 44% 30.23 in - NE 12.7 mph 20.7 mph N/A   Clear
10:55 AM 73.4 °F 50.0 °F 44% 30.24 in - NE 15.0 mph 20.7 mph N/A   Clear
11:15 AM 75.2 °F 50.0 °F 41% 30.24 in - ENE 11.5 mph 18.4 mph N/A   Clear
11:35 AM 75.2 °F 48.2 °F 38% 30.23 in - ENE 12.7 mph 21.9 mph N/A   Clear
11:55 AM 77.0 °F 46.4 °F 34% 30.23 in - NNE 16.1 mph 23.0 mph N/A   Clear
12:15 PM 77.0 °F 44.6 °F 32% 30.23 in - NE 13.8 mph 24.2 mph N/A   Clear
12:35 PM 77.0 °F 46.4 °F 34% 30.22 in - NNE 12.7 mph - N/A   Clear
12:55 PM 77.0 °F 42.8 °F 29% 30.22 in - ENE 11.5 mph - N/A   Clear
1:15 PM 78.8 °F 44.6 °F 30% 30.22 in - NE 11.5 mph 17.3 mph N/A   Clear
1:35 PM 78.8 °F 42.8 °F 28% 30.21 in - ENE 11.5 mph 17.3 mph N/A   Clear
1:55 PM 78.8 °F 44.6 °F 30% 30.21 in - East 5.8 mph 13.8 mph N/A   Clear
2:15 PM 78.8 °F 44.6 °F 30% 30.21 in - ENE 11.5 mph - N/A   Clear
2:35 PM 80.6 °F 44.6 °F 28% 30.21 in - ENE 6.9 mph - N/A   Clear
2:55 PM 80.6 °F 44.6 °F 28% 30.20 in - East 9.2 mph 16.1 mph N/A   Clear
3:55 PM 80.6 °F 42.8 °F 26% 30.18 in - NE 12.7 mph - N/A   Clear
4:15 PM 82.4 °F 44.6 °F 26% 30.17 in - NE 8.1 mph 16.1 mph N/A   Clear
4:35 PM 82.4 °F 44.6 °F 26% 30.17 in - NE 6.9 mph 17.3 mph N/A   Clear
4:55 PM 82.4 °F 44.6 °F 26% 30.16 in - NNE 11.5 mph - N/A   Clear
5:15 PM 80.6 °F 44.6 °F 28% 30.16 in - NE 10.4 mph - N/A   Clear
5:35 PM 82.4 °F 39.2 °F 21% 30.17 in - ENE 9.2 mph 16.1 mph N/A   Clear
5:55 PM 80.6 °F 42.8 °F 26% 30.17 in - NNE 12.7 mph - N/A   Clear
6:15 PM 80.6 °F 42.8 °F 26% 30.17 in - NE 9.2 mph 15.0 mph N/A   Clear
6:35 PM 78.8 °F 44.6 °F 30% 30.17 in - NE 9.2 mph - N/A   Clear
6:55 PM 78.8 °F 42.8 °F 28% 30.17 in - ENE 8.1 mph - N/A   Clear
7:15 PM 77.0 °F 44.6 °F 32% 30.17 in - NE 5.8 mph - N/A   Clear
7:55 PM 73.4 °F 46.4 °F 38% 30.18 in - ENE 6.9 mph - N/A   Clear
8:15 PM 71.6 °F 48.2 °F 43% 30.19 in - ENE 4.6 mph - N/A   Clear
8:35 PM 69.8 °F 48.2 °F 46% 30.19 in - ENE 4.6 mph - N/A   Clear
8:55 PM 68.0 °F 48.2 °F 49% 30.20 in - ENE 3.5 mph - N/A   Clear
9:15 PM 68.0 °F 48.2 °F 49% 30.21 in - Calm Calm - N/A   Clear
9:35 PM 66.2 °F 48.2 °F 52% 30.21 in - East 3.5 mph - N/A   Partly Cloudy
9:55 PM 64.4 °F 48.2 °F 56% 30.22 in - ENE 3.5 mph - N/A   Scattered Clouds
10:15 PM 64.4 °F 48.2 °F 56% 30.22 in - Calm Calm - N/A   Scattered Clouds
10:35 PM 64.4 °F 48.2 °F 56% 30.23 in - Calm Calm - N/A   Mostly Cloudy
10:55 PM 62.6 °F 48.2 °F 59% 30.23 in - Calm Calm - N/A   Mostly Cloudy
11:15 PM 62.6 °F 48.2 °F 59% 30.23 in - Calm Calm - N/A   Mostly Cloudy
11:35 PM 62.6 °F 50.0 °F 63% 30.24 in - Calm Calm - N/A   Overcast